Theta_e
315 317 314 316 317 321 320 318 315 315 313 315 316 316 317 319 323 316 315 316 316 317 322 314 314 314 314 315 317 314 315 316 313 312 311 311 310 311 317 315 316 318 319 318 317 315 312 309 312 316 319 318 320 321 322 321 323 324 326 329 330 331 330
316 318 320 323 322 318 317 317 314 314 315 314 314 316 316 316 326 319 315 315 315 317 323 315 314 313 313 313 314 314 312 313 316 314 312 311 312 311 312 313 313 314 315 316 316 318 313 310 309 310 310 316 318 320 320 321 322 324 326 329 332 333 332
319 319 318 318 317 315 315 316 314 314 315 315 313 315 316 316 315 317 317 316 316 317 324 312 313 313 313 312 313 314 313 313 313 315 314 312 312 312 311 312 312 312 312 313 313 314 314 312 309 308 310 311 310 314 319 319 321 324 325 330 331 333 333
317 316 316 318 317 316 316 317 315 314 313 314 313 317 314 315 315 322 319 314 317 325 323 313 313 314 314 312 311 311 312 312 313 312 314 314 313 313 311 312 312 312 311 310 312 312 311 309 309 308 310 311 312 312 317 319 322 324 325 329 329 331 333
318 318 317 318 318 317 316 316 315 314 315 314 314 313 313 314 319 318 319 316 317 313 313 312 313 313 315 314 312 315 312 311 312 315 312 313 312 312 312 311 312 313 313 312 313 314 312 312 310 308 309 311 312 313 316 319 321 322 323 327 330 331 332
319 319 319 319 319 318 317 316 315 315 314 315 314 313 313 313 316 317 316 315 315 318 318 313 313 314 313 312 314 312 312 313 313 312 313 313 313 314 314 312 312 312 313 313 313 314 312 312 311 309 310 311 309 310 314 315 318 320 323 324 327 331 331
321 320 320 320 320 319 318 317 317 316 315 316 314 313 314 314 317 318 319 316 315 314 318 314 313 313 312 311 312 313 314 313 312 312 312 314 313 312 314 313 314 313 313 313 314 313 313 312 310 310 310 309 308 309 311 314 316 316 320 322 325 331 330
322 322 321 321 320 319 318 318 318 316 316 316 314 314 315 315 315 316 316 315 314 314 316 316 318 316 315 315 315 312 315 315 311 315 312 312 313 312 313 313 316 313 313 314 313 314 314 315 313 313 311 308 308 307 310 311 312 313 314 320 324 329 327
325 324 323 324 323 321 320 319 319 317 317 317 315 315 314 315 315 315 316 317 314 314 314 315 314 315 314 313 312 313 312 318 316 313 311 312 311 311 312 312 313 313 313 313 315 316 316 317 316 313 313 311 308 305 308 309 310 312 314 316 321 325 324
322 323 323 323 323 322 321 320 319 319 318 317 316 316 314 314 315 315 314 314 314 314 313 314 315 314 313 313 315 313 312 312 314 314 312 312 312 311 312 312 314 314 314 315 315 317 318 318 316 315 315 313 312 309 307 307 309 310 314 316 315 321 323
323 324 323 324 323 322 321 321 320 318 318 318 318 317 315 314 314 320 315 314 314 313 314 314 314 314 313 313 312 312 312 312 313 313 314 315 314 313 315 313 312 313 313 314 316 317 319 318 316 316 316 315 314 312 311 308 308 309 313 317 318 318 323
323 323 324 324 323 322 322 322 320 320 319 319 321 320 316 314 314 314 315 315 314 314 313 313 314 313 313 313 313 313 313 311 311 312 313 313 314 316 315 314 312 313 313 314 315 316 318 318 317 317 317 316 315 314 312 310 306 312 313 315 318 320 319
323 324 324 323 322 322 323 323 322 320 320 321 320 322 319 316 314 313 313 314 313 313 312 313 313 313 313 313 313 313 313 312 312 312 313 313 312 313 313 313 313 313 312 312 314 316 316 317 318 316 317 316 316 316 315 312 309 310 315 316 317 318 319
322 323 323 322 322 322 322 324 322 323 322 320 321 321 321 320 316 314 313 314 313 313 313 312 313 313 313 313 313 312 312 312 312 312 313 313 313 312 313 312 312 312 311 313 314 313 314 316 315 316 317 316 315 316 315 312 310 311 314 316 316 316 318
322 322 322 322 323 323 322 322 323 323 321 320 321 321 321 320 319 315 313 313 313 313 312 312 312 312 312 312 312 313 313 312 311 311 311 311 312 312 311 311 311 311 311 312 312 313 313 314 315 315 314 315 315 315 315 314 311 311 311 314 315 317 316
321 320 320 321 321 322 322 322 322 322 322 321 321 321 321 320 319 316 314 314 313 313 313 312 312 312 312 312 312 312 313 312 312 312 311 311 311 311 310 311 312 311 312 312 311 312 312 313 314 314 314 314 315 315 316 316 314 310 311 312 314 314 315
319 318 319 320 320 321 321 321 322 321 322 321 320 322 321 321 319 317 314 314 314 313 312 312 311 311 311 311 311 311 312 311 311 312 311 311 311 310 311 310 310 310 311 312 312 311 310 311 312 315 314 314 315 316 316 318 317 314 312 311 313 313 315
317 317 318 318 319 319 319 320 320 321 321 321 321 321 322 322 319 317 316 315 315 313 312 311 310 310 310 311 311 311 311 311 311 311 311 311 314 312 310 310 310 310 310 310 311 311 311 310 312 313 313 313 314 315 316 317 316 315 313 311 311 313 313
316 317 318 318 319 319 319 319 319 321 322 321 321 320 320 320 320 318 317 316 315 315 314 312 311 310 310 311 311 311 311 311 311 310 310 310 310 311 311 310 310 310 309 310 311 312 311 311 311 311 312 313 313 313 314 314 314 313 312 312 311 311 312
317 317 318 319 319 319 319 319 320 320 322 322 320 320 319 319 320 318 318 317 316 316 315 313 312 311 311 310 310 310 310 310 310 310 310 310 310 309 309 310 310 310 310 310 311 311 312 311 312 312 313 312 312 312 313 313 312 311 310 310 309 309 310
316 316 317 317 317 317 318 318 320 321 322 321 320 320 320 319 319 319 318 317 317 317 316 314 313 312 312 311 311 310 310 310 309 309 310 309 309 309 309 309 310 310 311 311 311 312 312 312 311 311 312 312 312 312 312 313 311 311 310 309 309 309 309
315 315 317 317 316 317 318 319 320 320 321 322 322 321 321 320 319 318 318 318 317 317 316 315 315 314 312 311 310 310 310 310 310 309 309 308 308 308 309 310 310 310 313 317 316 315 314 315 313 312 313 312 312 311 311 311 310 309 309 308 308 308 306
315 314 314 316 317 317 318 319 320 320 321 321 322 322 321 320 319 319 318 318 317 317 316 316 318 317 316 314 311 310 310 310 309 309 309 308 308 308 308 309 312 315 317 318 318 317 314 314 318 317 315 311 312 312 311 311 310 310 309 308 308 307 306
313 314 315 316 317 317 318 319 320 320 321 321 321 322 322 320 319 319 319 319 318 317 317 317 314 305 304 308 315 311 310 310 309 308 308 308 308 308 308 308 308 311 316 318 321 315 309 307 308 311 313 315 315 313 311 311 311 310 308 308 308 307 306
312 314 314 315 316 317 318 318 319 320 320 320 320 320 320 321 321 320 319 318 318 318 317 317 305 304 303 302 309 314 310 310 309 308 308 307 308 308 308 308 308 309 310 311 311 310 311 309 306 305 304 304 305 307 309 312 313 310 308 308 308 308 306
313 313 314 315 316 316 316 317 318 318 319 320 320 318 319 319 319 320 319 318 318 318 318 312 304 303 302 301 300 311 312 310 309 309 308 307 307 307 308 308 308 308 307 314 316 315 312 312 312 309 308 308 307 304 297 297 301 312 313 309 309 309 308
312 313 314 314 315 315 315 316 317 318 319 318 318 317 317 317 318 318 318 318 318 318 318 314 305 304 302 300 299 301 312 311 309 309 309 308 308 308 308 308 308 308 309 310 312 313 313 312 310 309 310 310 311 312 307 298 297 297 305 312 311 310 310
313 313 313 312 313 313 314 315 316 316 317 317 317 317 317 316 317 317 317 317 317 317 317 310 304 303 302 301 299 301 310 311 310 309 309 309 308 308 308 308 308 308 309 308 308 309 309 308 308 307 308 308 309 310 310 311 308 305 304 307 309 311 311
313 313 313 312 311 312 313 314 315 316 316 316 317 317 317 316 316 316 316 316 315 315 317 306 303 302 301 300 299 307 309 310 310 310 309 309 308 308 309 308 308 308 308 307 309 304 309 310 307 307 308 308 309 309 309 311 305 305 310 309 309 309 309
313 313 313 312 311 311 311 312 313 314 314 315 315 315 316 316 317 317 316 315 314 315 316 310 303 302 301 300 301 309 309 310 310 310 310 310 309 309 309 308 308 308 308 308 306 298 298 310 309 308 308 308 308 308 309 310 304 300 300 300 299 299 298
312 313 312 311 312 312 312 312 312 314 313 313 313 314 315 315 316 316 316 315 315 314 315 313 305 302 300 300 306 310 310 310 310 310 311 311 310 309 309 314 313 308 308 308 302 298 296 306 308 307 307 306 306 307 308 309 309 307 298 296 295 294 294
312 312 312 312 312 312 312 312 313 312 312 313 314 314 315 314 314 314 314 315 319 317 315 314 306 302 300 300 304 310 310 310 309 310 310 310 310 309 309 312 315 313 310 307 300 298 297 306 308 307 306 307 306 306 308 310 308 308 307 307 306 304 301
313 312 312 312 312 312 313 312 311 311 311 312 312 313 313 313 312 313 314 314 314 316 316 316 313 303 301 300 300 310 310 310 309 310 310 309 310 309 308 308 310 303 302 301 299 297 296 298 307 307 307 307 306 306 310 309 309 308 308 309 308 307 307
312 312 313 313 313 313 312 311 311 311 310 310 310 310 311 311 312 312 313 313 313 313 314 314 314 304 301 300 299 304 310 310 311 311 311 310 309 309 309 308 309 305 299 299 299 298 297 295 300 308 308 308 308 310 308 308 309 311 309 307 307 308 307
312 313 313 312 311 311 312 312 312 311 310 309 309 309 310 310 310 310 311 311 312 312 314 316 315 307 302 300 298 298 309 311 311 311 310 310 309 309 309 310 309 306 299 298 298 298 298 297 295 308 309 301 300 298 308 311 308 309 309 308 306 305 305
313 313 313 313 311 311 311 311 310 311 310 309 309 309 309 309 309 309 310 311 312 312 312 313 308 311 306 302 299 296 299 306 301 311 312 311 311 310 310 310 311 309 299 297 297 297 297 297 299 303 299 298 298 296 302 309 306 306 306 305 304 304 303
314 314 313 313 312 311 311 311 310 310 309 308 308 308 308 308 307 307 308 310 311 311 312 312 308 305 307 302 299 297 296 297 299 308 311 311 312 312 311 311 309 302 300 298 296 296 296 297 301 298 296 296 296 298 305 306 304 305 304 303 302 303 303
Wind_Speed
4 4 3 3 2 2 4 4 4 4 4 2 3 4 3 2 2 3 3 3 3 2 1 4 3 3 3 4 4 3 3 4 4 5 5 5 5 4 5 6 6 5 6 5 3 2 2 3 7 5 1 8 5 4 5 8 8 7 8 7 5 4 3
4 4 2 2 3 2 4 3 3 4 3 3 2 3 3 3 1 1 2 2 2 3 1 2 2 3 4 4 5 5 5 4 4 2 4 4 4 4 5 5 4 5 4 4 4 4 5 4 2 5 8 7 6 5 8 7 7 6 6 8 6 6 3
3 3 2 4 3 2 3 4 3 4 4 3 3 2 3 2 2 1 2 2 1 2 1 1 1 2 3 4 3 4 3 5 3 3 4 2 3 3 3 3 5 4 5 5 6 5 3 4 2 5 5 6 7 6 6 8 9 7 5 6 7 6 5
4 3 3 5 4 3 4 5 3 4 3 4 3 2 3 2 2 0 2 4 2 1 1 1 1 0 2 2 2 2 4 4 3 3 3 2 2 3 4 4 4 4 3 3 2 3 3 4 4 5 5 4 4 7 6 7 7 6 4 3 5 5 5
4 4 4 6 5 4 4 5 3 3 4 3 2 3 3 3 2 2 2 2 2 1 2 2 3 0 0 1 1 2 2 1 2 3 4 5 4 3 3 2 2 1 1 2 1 0 2 1 2 3 4 5 3 1 5 7 5 5 5 5 5 4 4
4 5 5 5 5 4 5 5 4 4 3 2 4 4 5 5 3 3 4 4 3 3 3 3 3 1 1 1 1 1 2 2 2 2 3 1 2 4 3 1 0 0 2 1 0 1 1 1 1 3 3 1 3 5 3 3 4 6 2 4 4 3 3
5 5 5 6 6 5 4 5 5 5 5 5 5 6 6 4 4 5 3 4 3 4 3 4 3 3 1 1 1 2 3 2 1 2 1 1 1 1 1 2 1 2 2 1 1 1 1 1 2 2 3 2 2 3 3 3 3 4 3 5 4 2 3
5 5 6 6 6 5 5 5 6 4 5 6 6 7 5 4 5 4 5 5 4 5 4 3 3 3 3 2 2 2 3 2 1 1 3 3 4 5 4 3 3 2 1 0 1 1 1 1 1 2 0 4 4 2 4 2 2 2 3 3 5 2 5
4 4 5 5 5 5 6 6 6 5 6 5 5 4 5 4 5 5 4 5 5 4 4 4 5 4 4 4 4 3 4 1 3 3 3 3 4 3 4 2 2 3 2 2 1 0 1 1 1 2 2 2 3 7 2 4 3 3 2 4 3 2 6
6 6 6 6 7 6 5 6 6 6 5 5 5 4 4 5 5 5 5 5 5 5 5 5 5 5 4 4 4 4 5 3 2 5 3 3 4 3 4 3 3 3 3 2 2 1 1 1 1 2 2 2 2 3 4 4 3 2 3 4 3 3 5
6 6 6 7 5 5 5 5 5 5 6 6 5 4 5 5 5 5 5 5 5 5 6 5 5 5 4 4 5 5 5 3 4 4 4 3 4 3 3 2 2 3 2 2 2 2 1 0 1 2 1 1 2 1 1 3 4 2 3 3 1 3 4
5 5 5 5 4 5 6 6 6 7 5 4 4 1 2 4 4 5 5 6 5 6 5 6 5 4 4 5 5 5 5 3 4 5 5 3 4 3 4 4 2 3 2 2 2 2 2 2 1 1 1 0 1 2 2 1 3 2 1 3 3 2 3
5 5 5 5 5 6 7 6 6 5 7 3 4 6 5 6 6 6 6 6 6 5 6 6 5 5 4 5 5 5 5 3 4 5 6 4 3 3 4 5 4 4 1 1 2 2 2 2 1 1 1 1 1 2 2 2 2 5 2 3 3 5 5
6 5 5 5 6 6 6 6 6 7 2 5 6 6 7 7 7 7 7 6 7 6 6 6 5 4 5 6 5 6 6 5 5 6 4 6 4 4 4 5 5 4 2 2 2 2 3 2 3 1 0 1 0 1 2 2 2 4 3 2 2 3 4
5 4 5 5 6 6 6 6 7 4 6 5 7 8 8 7 6 7 7 7 7 7 6 7 5 4 5 6 6 5 5 6 6 6 4 6 6 4 4 5 5 5 2 4 3 3 3 3 3 3 2 1 1 1 2 2 2 2 4 3 3 2 2
5 5 5 6 6 7 7 7 6 6 7 6 6 7 7 7 7 6 6 7 7 7 7 7 6 5 6 6 7 6 6 6 6 7 6 6 6 4 4 5 6 5 2 3 3 4 3 4 3 3 4 1 3 2 3 4 1 2 4 4 3 3 2
5 5 6 7 7 8 7 7 5 6 7 5 6 7 7 7 6 6 6 7 7 7 7 7 6 6 7 7 7 8 7 6 7 7 7 7 6 5 5 4 6 5 3 4 5 4 3 4 4 3 4 2 2 4 3 3 3 2 1 3 3 4 3
6 6 7 6 8 8 7 7 5 7 6 6 6 6 6 6 6 6 7 8 8 8 8 7 7 7 7 6 7 7 7 7 7 7 7 7 5 6 5 6 6 4 3 5 4 4 3 4 3 3 4 3 3 4 3 2 2 2 3 4 4 3 3
6 7 7 7 8 8 7 6 6 5 6 7 6 6 7 6 7 8 9 9 9 8 7 6 7 7 7 7 6 7 7 7 7 7 7 7 7 6 6 6 6 4 4 5 6 5 3 5 3 3 4 5 5 3 4 3 1 2 2 3 3 4 2
7 7 7 8 7 6 7 6 5 7 6 6 6 6 7 7 7 8 9 8 8 8 8 7 6 7 7 6 7 7 7 7 7 6 7 7 7 6 6 5 5 5 5 6 6 6 5 4 4 5 5 5 4 3 4 4 1 2 2 2 2 2 3
6 7 7 6 6 6 5 5 7 6 4 6 7 7 7 8 7 7 8 8 8 7 7 7 7 7 7 6 6 7 7 7 7 7 7 7 7 6 6 6 6 6 6 6 6 6 5 5 4 5 5 4 3 3 4 4 3 3 2 2 2 2 1
6 6 6 5 5 6 6 6 6 5 5 6 6 7 6 6 6 7 7 7 7 6 6 7 6 6 7 7 6 7 7 7 7 7 7 7 7 6 6 6 6 6 6 8 9 7 6 6 4 5 5 4 4 4 4 3 3 3 3 2 4 2 2
6 6 5 6 7 7 6 6 6 6 7 7 6 6 6 6 6 7 7 8 7 6 7 6 8 11 10 7 7 6 6 7 7 7 7 7 7 7 7 6 6 9 10 11 11 11 9 8 9 7 6 4 4 4 4 5 4 3 3 3 4 3 4
6 7 7 6 6 7 7 6 6 7 7 7 7 7 6 7 7 7 8 8 8 7 7 7 12 12 13 13 8 7 7 7 7 7 7 7 8 8 7 6 6 7 9 10 9 9 9 9 9 10 10 9 7 7 5 6 6 4 3 4 3 3 3
6 8 6 7 8 8 6 6 7 8 7 8 8 6 7 8 8 7 7 7 8 8 8 10 13 13 14 14 11 8 7 7 7 7 8 8 8 7 7 7 6 5 6 8 7 7 8 9 9 8 8 8 9 10 9 8 7 4 4 4 4 5 3
8 7 8 8 7 6 6 7 7 7 9 10 6 7 9 8 9 8 8 9 9 9 9 12 13 14 14 14 14 11 7 7 7 8 8 9 9 8 7 7 7 6 6 10 9 7 7 7 7 7 6 7 8 9 11 12 10 7 3 5 6 5 5
8 9 9 8 6 6 6 9 9 8 8 6 7 9 8 9 9 9 9 10 10 9 10 13 15 15 15 15 15 11 8 9 8 9 9 9 9 9 9 8 8 7 7 6 7 7 7 7 6 5 5 5 5 7 8 10 11 9 8 6 5 6 5
9 9 9 8 7 7 8 9 9 8 8 9 9 10 10 10 10 9 9 9 9 10 10 16 16 16 16 16 15 10 8 8 8 8 9 9 10 10 9 8 8 9 8 7 7 8 8 8 7 6 6 6 6 6 4 5 7 7 8 8 7 8 7
8 9 8 7 8 9 9 10 11 9 8 8 8 7 7 7 9 10 10 9 9 11 12 16 16 16 16 16 14 7 8 8 9 9 9 9 9 9 9 9 8 9 9 9 10 12 10 7 6 7 7 7 6 6 6 7 8 8 8 7 7 8 7
9 9 9 8 9 10 10 10 10 7 7 8 9 9 10 10 10 10 10 9 10 11 12 15 16 16 16 17 9 7 8 7 7 10 10 10 10 10 9 9 10 9 10 10 12 13 13 8 7 7 7 7 6 6 8 6 8 12 12 11 11 10 8
9 10 8 10 11 11 10 8 9 7 9 10 10 11 10 9 9 9 10 10 11 11 12 15 16 15 16 16 12 10 8 8 9 9 10 10 8 8 9 16 12 10 10 12 14 15 13 9 8 8 7 7 7 8 8 7 4 5 9 10 10 10 10
9 9 9 11 10 11 11 11 10 6 8 8 10 9 7 7 8 7 9 11 11 12 12 14 16 15 16 15 11 8 7 7 9 9 9 10 9 7 8 10 16 14 13 14 16 15 13 11 9 9 9 7 7 7 8 7 5 5 4 4 5 4 5
9 9 11 11 9 10 9 6 8 8 8 8 9 8 7 7 8 9 9 9 10 10 11 12 13 13 14 14 15 10 7 7 9 11 10 9 8 7 8 8 10 16 18 17 17 16 15 14 10 9 7 6 7 9 8 6 7 6 5 5 6 3 4
10 10 10 10 9 7 7 9 9 7 8 7 6 7 7 8 9 11 9 8 8 9 9 10 12 15 13 13 14 14 8 10 11 10 9 8 7 9 9 9 8 12 17 18 17 17 16 15 14 9 8 8 10 10 4 5 8 9 6 5 4 3 3
8 8 8 7 7 9 9 7 7 7 6 6 7 8 8 7 7 8 8 8 7 10 8 10 10 9 11 12 13 17 10 12 13 7 4 8 10 10 11 10 9 13 17 18 18 17 18 16 17 9 11 15 15 13 8 6 4 4 4 4 3 3 3
7 6 7 6 6 9 9 7 6 6 6 6 7 8 8 7 6 7 8 8 8 8 8 7 11 13 17 16 11 13 17 14 10 9 12 14 13 12 10 10 10 14 15 17 17 18 18 19 12 11 17 16 16 15 10 5 5 4 4 4 3 4 5
6 5 5 5 5 7 8 7 6 6 5 6 6 7 7 6 6 7 8 8 8 7 6 6 9 15 14 12 11 15 16 17 15 12 11 11 12 10 9 9 11 16 16 16 17 17 17 17 13 17 17 17 16 11 7 6 6 7 5 4 5 5 6
Wind_Direction
207 243 255 256 207 279 313 308 327 307 320 354 317 314 342 17 51 28 30 27 43 351 42 54 48 355 15 19 37 40 19 41 53 73 51 13 53 346 349 17 15 22 18 29 41 115 142 331 331 344 126 355 351 3 1 355 351 350 353 353 344 329 315
217 242 263 294 308 332 310 303 323 303 306 313 311 291 327 354 13 32 358 9 32 6 45 51 30 29 47 35 31 30 32 30 35 69 65 36 38 23 358 7 11 17 358 22 16 60 62 357 319 7 332 333 346 20 356 351 343 349 1 4 357 357 322
241 271 312 286 279 313 307 294 300 302 293 301 310 316 311 341 14 38 2 287 300 345 44 345 360 38 20 19 26 17 11 54 24 54 80 80 53 19 46 22 34 358 15 12 21 16 41 75 40 335 337 346 339 325 339 347 337 340 354 4 18 16 359
238 235 280 284 278 296 289 288 282 269 286 261 310 309 302 291 326 68 340 300 338 336 62 257 234 111 35 12 352 49 51 48 18 53 78 76 82 50 43 49 60 54 59 53 1 4 62 24 2 349 332 326 292 315 327 329 327 328 339 354 19 19 6
217 212 227 253 264 263 267 278 287 290 287 293 290 297 287 272 255 270 273 304 318 334 258 237 268 155 166 49 340 56 33 84 19 34 47 33 23 65 77 35 71 130 53 93 262 291 58 73 47 326 327 316 320 259 292 315 302 328 338 1 4 20 19
218 221 233 246 255 248 252 264 262 249 279 292 249 242 257 246 231 245 263 255 244 223 236 249 269 228 136 194 310 26 357 3 41 62 54 140 49 27 344 20 181 86 22 292 203 203 287 78 96 11 305 1 304 318 306 340 335 322 298 352 353 9 10
222 217 232 237 250 240 239 248 244 231 221 223 221 221 226 222 223 222 231 250 230 235 233 229 247 266 175 133 242 313 287 307 50 339 283 259 228 321 220 86 330 57 354 281 274 170 164 118 43 45 323 320 278 297 297 320 319 346 334 342 353 6 9
223 220 226 228 240 239 237 239 248 231 220 233 220 228 218 215 228 218 216 239 236 233 239 249 245 231 223 201 200 225 282 247 210 281 312 351 351 348 348 5 332 351 283 234 211 253 175 170 194 191 110 335 334 302 328 300 315 303 306 294 317 360 8
228 226 239 233 234 225 230 222 243 231 228 234 236 232 227 212 228 230 225 231 229 234 234 235 244 238 231 230 243 224 271 249 274 296 274 311 293 303 307 294 338 317 330 333 282 245 209 199 202 187 153 162 337 343 332 335 348 319 311 352 323 356 11
225 227 230 234 232 227 222 228 233 239 235 231 235 220 224 221 229 233 234 238 232 232 242 238 235 242 232 239 252 245 255 249 236 271 281 278 282 281 294 301 284 297 305 294 306 262 103 139 207 199 187 199 202 314 350 335 331 333 321 4 338 317 2
225 230 230 238 235 225 229 229 231 243 233 224 215 217 208 217 227 234 234 242 238 231 237 244 240 243 247 259 257 262 254 248 273 283 268 262 279 284 288 303 281 290 282 298 307 299 170 163 187 167 166 200 175 261 236 331 315 252 291 316 227 309 330
232 231 231 233 234 232 243 234 222 233 241 216 204 95 6 286 244 236 234 245 242 239 239 244 241 244 228 253 261 262 272 245 256 276 269 256 266 273 289 295 271 263 255 280 295 297 264 146 286 193 142 136 204 209 247 154 331 273 195 299 283 305 321
232 229 229 220 224 229 239 237 237 236 234 182 155 158 172 222 237 245 239 239 244 244 244 247 233 241 230 236 250 261 263 246 255 261 278 260 257 249 256 272 272 260 242 214 285 271 275 287 165 258 154 139 229 234 187 176 252 293 229 250 285 302 322
236 232 236 221 228 237 242 239 237 239 217 186 181 184 190 217 219 225 238 240 237 241 241 250 235 224 233 247 246 245 258 246 255 264 262 285 258 237 238 238 259 254 212 216 212 271 281 277 314 297 233 158 149 241 191 180 232 291 290 232 263 301 321
234 231 236 236 237 242 241 238 237 234 230 218 185 197 199 206 212 216 226 238 239 241 242 248 244 211 231 243 255 238 248 244 247 259 256 268 277 245 238 240 250 258 197 232 220 225 249 278 284 308 301 281 298 272 218 202 217 234 286 307 301 292 295
237 238 242 248 245 245 243 241 230 227 232 222 203 205 207 204 206 208 221 233 235 240 239 242 238 220 232 235 249 254 238 236 239 250 249 250 260 258 244 234 247 251 203 232 240 234 232 247 241 246 275 258 289 255 228 220 190 263 275 295 300 317 308
239 235 239 242 242 246 243 242 226 226 235 212 208 217 219 215 202 203 219 231 232 237 242 238 235 223 231 230 236 248 249 237 236 234 237 245 251 241 234 242 248 239 217 232 252 238 236 234 231 229 256 256 244 260 226 207 208 239 262 296 309 309 320
240 237 238 242 244 248 246 243 225 227 227 220 216 209 217 214 212 209 218 226 229 230 233 230 228 232 232 230 232 239 243 241 238 235 232 233 238 232 228 225 248 237 203 221 248 252 235 238 237 234 252 258 251 254 270 229 231 213 245 269 289 285 306
237 237 237 243 247 246 249 246 237 236 219 227 218 210 211 210 211 217 222 225 225 229 231 225 223 229 231 229 230 236 241 239 238 234 235 234 235 227 225 230 233 220 200 203 229 241 235 245 238 230 239 240 236 251 268 264 205 223 231 257 253 293 312
232 238 239 243 249 251 247 242 233 234 223 221 216 214 215 214 220 219 226 225 228 230 233 228 226 229 233 231 229 233 236 236 235 234 235 233 233 230 225 224 224 212 209 208 217 227 232 239 228 242 233 236 232 235 247 261 228 212 219 256 272 226 273
229 234 239 243 249 249 251 246 235 237 220 223 223 219 214 215 224 221 230 228 233 231 234 236 231 231 232 230 226 230 229 228 230 233 239 236 231 231 225 221 222 213 211 213 209 216 200 227 217 244 234 217 219 214 237 246 251 252 269 272 243 289 256
225 233 234 235 238 239 235 236 237 231 225 231 230 228 224 220 223 231 237 236 241 234 234 237 233 226 228 232 222 231 228 227 227 233 239 240 236 236 234 223 225 221 222 226 216 213 205 207 201 232 239 203 211 205 229 238 243 260 265 270 280 250 274
229 227 227 231 232 230 229 227 221 224 228 230 233 233 231 229 228 233 238 240 237 236 237 240 236 231 224 221 219 224 227 229 227 231 236 242 247 240 236 231 233 236 235 237 231 225 224 231 230 208 216 194 218 213 217 235 239 231 249 265 267 282 300
227 230 228 230 235 229 227 217 214 222 229 229 232 232 224 232 233 233 235 240 241 236 239 238 239 236 232 227 217 215 219 229 225 229 232 233 241 241 240 232 230 243 245 245 240 225 222 221 218 220 218 209 199 200 221 235 243 206 218 226 245 247 252
224 234 230 232 230 229 226 216 220 224 227 232 233 223 227 230 232 231 233 238 242 243 243 240 234 233 231 229 223 218 216 224 224 225 229 231 236 239 241 240 235 222 222 224 227 238 240 243 239 228 223 227 231 232 229 218 237 233 202 227 239 238 237
224 231 230 231 230 223 220 224 230 227 228 228 223 220 231 230 233 230 227 235 241 242 244 248 238 230 229 228 225 220 222 219 220 228 225 228 232 234 234 237 246 237 234 236 235 225 227 239 237 235 245 254 252 236 236 240 238 237 194 206 226 247 228
226 231 231 231 227 222 217 226 228 227 232 227 220 230 232 232 235 230 227 229 239 244 243 247 242 237 232 228 225 213 226 219 220 226 225 224 227 230 228 228 234 246 238 229 233 229 224 226 234 240 243 243 241 256 236 226 233 239 235 225 206 230 232
228 233 231 227 222 224 225 234 235 233 225 224 221 224 227 228 232 231 231 228 235 245 245 242 238 237 236 231 228 208 227 224 224 229 229 226 226 226 225 223 225 235 242 231 218 218 219 223 222 235 244 246 246 245 240 227 225 221 219 221 223 228 242
233 236 234 226 221 230 229 228 232 230 225 235 236 238 246 232 236 234 230 224 225 243 250 244 235 235 234 234 226 206 217 225 226 229 231 228 227 226 223 218 220 230 235 237 235 222 222 212 212 224 238 251 262 254 248 237 223 206 205 203 209 217 223
236 237 235 230 229 233 233 233 235 223 223 231 232 229 234 230 230 233 235 221 220 236 248 250 235 231 232 231 215 212 215 221 230 231 232 229 227 225 219 211 213 224 228 232 236 223 219 209 217 217 229 244 252 268 270 259 214 214 217 214 218 226 234
235 237 232 229 232 235 234 237 238 213 212 226 228 230 229 236 238 232 234 232 221 228 242 249 240 230 228 227 204 216 211 213 230 231 239 237 229 226 221 222 217 217 224 230 233 228 212 195 214 214 220 233 251 256 266 263 249 216 215 218 226 232 237
242 244 240 238 232 236 235 230 235 212 219 224 233 235 226 235 253 248 237 239 233 225 243 252 247 232 228 222 203 217 216 215 231 236 235 242 234 225 230 231 227 222 221 229 228 227 213 195 213 212 206 206 235 247 246 248 238 223 205 212 229 210 232
238 237 241 246 243 238 245 252 248 231 230 224 236 238 223 209 230 250 246 239 247 235 239 251 252 238 227 222 204 205 205 209 227 237 234 235 244 234 230 234 233 232 231 231 229 227 220 202 210 210 191 203 219 240 239 226 230 210 227 213 237 223 255
243 243 238 242 249 251 240 239 245 237 237 234 235 249 237 231 231 240 242 235 240 247 235 246 258 245 230 223 213 201 206 211 225 228 231 240 238 243 238 229 228 228 227 232 233 228 225 213 212 210 201 212 213 225 189 207 229 210 205 207 223 234 251
246 252 259 250 252 257 255 243 243 243 238 231 233 238 242 240 250 273 279 267 253 254 245 234 255 287 272 247 225 205 208 220 218 204 242 255 245 241 238 235 232 228 221 225 230 229 228 222 213 213 219 220 228 223 209 210 178 180 193 196 204 228 253
262 250 257 253 250 260 266 262 251 242 236 233 230 239 239 235 232 247 259 258 253 250 249 236 224 239 246 247 231 204 218 229 218 185 205 233 237 238 234 233 237 235 224 221 223 226 229 228 214 219 225 225 230 223 217 210 190 178 188 193 197 233 236
289 283 275 276 259 263 278 286 282 262 249 234 240 243 248 237 237 251 258 270 273 266 255 240 229 235 252 248 211 212 218 229 231 216 213 229 239 242 237 232 232 233 228 221 220 223 228 228 223 222 223 226 227 217 205 204 199 205 195 200 215 231 237